Wind_Speed
16 15 14 13 11 10 9 9 9 8 8 7 7 8 8 6 4 3 2 1 0 3
19 19 17 15 14 13 11 10 10 9 8 6 6 6 5 4 5 3 3 2 2 3
22 21 19 17 17 16 14 13 12 10 8 7 6 5 4 3 2 2 1 1 3 4
24 23 22 22 20 18 16 15 14 12 10 9 8 7 5 4 3 3 3 3 1 3
25 24 24 24 23 20 19 17 16 14 12 11 9 8 7 6 6 6 5 4 3 1
26 26 27 27 25 23 21 20 18 16 15 13 11 10 8 8 7 7 7 5 4 2
26 27 27 27 26 25 24 22 20 19 17 15 13 12 10 10 9 9 9 7 6 4
24 26 27 27 26 26 25 25 23 21 19 16 16 15 13 12 12 11 10 9 7 6
23 25 26 27 27 27 27 27 25 24 21 20 20 17 15 12 14 13 13 11 9 7
23 22 23 25 26 29 29 28 28 26 24 24 22 19 18 14 14 15 14 12 10 8
19 19 21 22 24 27 29 30 31 29 27 25 23 20 18 14 12 14 13 12 10 9
17 18 20 22 23 25 28 31 33 32 29 26 23 20 17 13 13 14 12 12 14 12
20 20 21 22 23 24 26 30 32 33 29 26 24 20 15 15 17 17 13 12 12 12
22 21 22 23 22 23 25 26 28 29 27 24 22 18 16 16 20 19 13 15 14 12
Wind_Direction
253 253 256 257 259 265 270 277 288 298 304 308 314 323 327 321 331 358 345 313 48 58
253 251 254 257 257 260 261 268 275 283 288 292 296 303 311 311 326 332 326 10 32 48
260 258 258 258 258 259 261 262 265 268 271 270 268 276 283 254 263 267 206 90 72 44
259 257 254 253 255 257 260 260 261 268 273 271 269 272 269 236 224 210 197 176 185 141
262 258 256 256 255 255 255 256 258 260 261 258 251 247 245 233 232 223 212 212 212 189
260 258 257 258 257 253 253 252 253 255 257 258 254 249 248 242 233 228 226 223 233 251
266 264 263 264 261 256 252 250 248 250 253 252 248 240 244 246 235 222 216 218 223 236
275 274 270 265 260 256 251 249 247 246 244 243 243 239 241 246 235 230 221 214 216 224
281 280 277 271 261 253 250 247 244 242 241 239 236 231 234 238 231 226 225 222 228 241
283 284 283 280 269 256 251 248 242 242 239 240 236 231 223 226 236 225 229 232 229 231
290 293 295 286 275 265 255 249 243 243 242 243 242 235 220 224 235 233 234 238 239 238
324 306 300 288 282 276 263 253 245 244 240 238 241 239 226 223 243 244 244 245 252 247
323 314 303 298 291 285 273 262 253 244 241 238 233 226 219 229 246 252 254 256 244 245
322 316 308 302 293 287 277 264 252 245 240 232 226 216 211 231 236 246 258 262 255 246
Height
813 813 812 812 811 811 810 810 809 808 806 805 803 802 802 800 797 795 794 792 791 790
809 809 809 809 809 808 808 807 807 806 804 803 801 800 798 798 798 797 796 795 794 793
805 806 806 807 806 806 806 805 804 803 801 800 799 798 796 794 794 794 793 792 792 794
798 799 800 800 801 802 802 802 802 802 801 800 799 798 796 794 792 791 791 790 789 786
795 796 796 795 796 797 797 798 798 798 797 797 796 794 793 793 793 791 789 789 789 788
787 788 788 789 791 792 792 793 794 795 795 795 795 794 793 792 791 791 790 789 789 789
781 782 782 784 785 786 787 788 789 790 791 792 792 791 791 791 790 788 786 786 786 786
776 775 776 776 778 779 781 781 783 784 785 786 787 788 787 787 787 787 785 784 783 781
773 772 771 770 770 771 772 774 776 778 779 779 779 779 782 782 782 783 783 781 780 780
769 768 766 765 765 765 766 769 769 770 773 773 774 775 775 776 778 778 779 778 777 777
766 765 764 762 760 759 760 761 763 764 766 769 770 772 773 774 775 776 775 776 776 775
763 761 759 757 755 754 753 754 755 756 759 761 765 769 773 773 774 775 773 773 774 774
760 758 755 753 750 749 748 747 748 749 751 754 757 761 765 770 772 774 772 772 771 772
755 753 751 748 745 743 741 741 743 744 746 750 753 755 758 761 763 769 768 770 770 769